Regional Weather Roundup
Issued by NWS

Home | Current Version | Previous Version | Text Only | Print | Product List | Glossary On
Versions: 1 2 3 4 5 6 7 8 9 10 11 12 13 14 15 16 17 18 19 20 21 22 23 24 25 26 27 28 29 30 31 32 33 34 35 36 37 38 39 40 41 42 43 44 45 46 47 48 49 50
000
ASUS43 KDTX 260810
RWRMI
MICHIGAN HOURLY REGIONAL WEATHER ROUNDUP
NATIONAL WEATHER SERVICE DETROIT/PONTIAC MI
400 AM EDT TUE MAY 26 2015

NOTE: "FAIR" INDICATES FEW OR NO CLOUDS BELOW 12,000 FEET WITH NO
SIGNIFICANT WEATHER AND/OR OBSTRUCTION TO VISIBILITY.

MIZ047>049-052>055-059>063-066>070-074>076-081>083-260900-
SOUTHEAST LOWER MICHIGAN

CITY           SKY/WX    TMP DP  RH WIND       PRES   REMARKS
ADRIAN         FAIR      65  62  90 SW7       30.04S
ALMA           PTCLDY    63  60  91 S6        29.98S
ANN ARBOR      PTCLDY    64  61  90 S5        30.03S
BAD AXE        CLEAR     62  58  86 SW6       29.98S
CARO           PTCLDY    65  62  89 SW8       29.98S
DETROIT CITY   PTCLDY    69  62  78 SW8       30.03S
DETROIT        MOCLDY    67  62  84 S8        30.03F
FLINT          MOCLDY    69  62  78 S8        30.00S
GROSSE ILE     CLEAR     64  61  88 S6        30.02S
HILLSDALE      PTCLDY    65  65  99 S6        30.03F
HOWELL         MOCLDY    66  62  87 S3        30.02R

CITY           SKY/WX    TMP DP  RH WIND       PRES   REMARKS
JACKSON        PTCLDY    65  62  90 S8        30.02S
LAMBERTVILLE   CLEAR     68  61  77 S6        30.04S
LANSING        MOCLDY    66  61  84 S7        30.00S
LAPEER         FAIR      64  61  88 S6        30.01S
MASON          PTCLDY    64  60  87 CALM      30.01R
MONROE         PTCLDY    66  63  88 S6        30.02F
MT. CLEMENS    CLEAR     69  64  81 SW8       30.00S
PONTIAC        PTCLDY    68  62  81 SW9       30.01S
PORT HOPE        N/A    N/A N/A N/A SW8       29.94S
PORT HURON     CLEAR     64  61  88 S5        30.02R
TRI CITIES     CLEAR     68  60  75 SW9       29.97S
MIDLAND        FAIR      63  58  84 SW3       29.96S
TROY           PTCLDY    70  64  81 SW9       30.04S
SAGINAW HB     PTCLDY    64  63  94 S10       29.97S
$$
MIZ043>046-050>051-056>058-064>065-071>073-077>080-260900-
SOUTHWEST LOWER MICHIGAN

CITY           SKY/WX    TMP DP  RH WIND       PRES   REMARKS
BATTLE CREEK   PTCLDY    66  62  87 S9        30.02R
BENTON HARBOR  PTCLDY    67  63  87 S8        29.96F
BIG RAPIDS     PTCLDY    63  57  82 S3        29.95S
COLDWATER      CLEAR     65  62  88 S6        30.02S
FREMONT        FAIR      60  58  90 CALM      29.95S
HOLLAND        PTCLDY    64  60  87 S6        29.97F
GRAND RAPIDS   PTCLDY    66  62  87 SW7       29.98R
IONIA          FAIR      66  61  82 SW8       29.98S
KALAMAZOO      PTCLDY    67  62  84 S7        30.00S
LUDINGTON      CLOUDY    71  61  71 S9        29.91S
MARSHALL       PTCLDY    66  63  88 S5        30.01S
MOUNT PLEASANT PTCLDY    65  59  80 SW7       29.96S
MUSKEGON       PTCLDY    67  59  75 S15       29.95S
SOUTH HAVEN    PTCLDY    68  63  84 S5        29.97S
$$
MIZ016>042-260900-
NORTHERN LOWER MICHIGAN

CITY           SKY/WX    TMP DP  RH WIND       PRES   REMARKS
ALPENA         PTCLDY    66  60  81 SW6       29.90R
BEAVER ISLAND  RAIN      63  59  87 SW14G28   29.86R
BELLAIRE       PTCLDY    60  58  95 CALM      29.89S FOG
CADILLAC       PTCLDY    62  58  87 S7        29.94S
CHARLEVOIX     MOCLDY    64  61  90 S8        29.89F
FRANKFORT      PTCLDY    68  56  64 SW12G20   29.89S
GAYLORD        MOCLDY    64  62  93 SW12      29.91S
GRAYLING       PTCLDY    64  59  82 SW7       29.93S
HARBOR SPRINGS MOCLDY    62  60  93 W3        29.87S
HOUGHTON LAKE  PTCLDY    62  58  86 SW5       29.95R
MANISTEE       PTCLDY    66  57  72 SW5       29.91S
OSCODA         CLEAR     64  61  90 SW8       29.93S
PELLSTON       MOCLDY    65  61  87 SW9       29.87S
ROGERS CITY    MOCLDY    64  62  92 CALM      29.90R
TRAVERSE CITY  PTCLDY    68  59  73 VRB6      29.89R
$$
MIZ007>008-015-260900-
EASTERN UPPER MICHIGAN

CITY           SKY/WX    TMP DP  RH WIND       PRES   REMARKS
KINROSS        CLOUDY    57  57 100 S5        29.85R
MACKINAC ISLAN MOCLDY    57  57 100 CALM      29.85S
NEWBERRY       MOCLDY    54  54  99 SW15      29.82S FOG
S. S. MARIE    CLOUDY    59  56  89 SW7       29.83S
MUNISING         N/A     62  58  86 S8        29.80R
$$
MIZ004>006-011>014-085-260900-
CENTRAL UPPER MICHIGAN

CITY           SKY/WX    TMP DP  RH WIND       PRES   REMARKS
MANISTIQUE     CLOUDY    48  47  97 S5        29.83R FOG
ESCANABA       PTCLDY    57  55  94 CALM      29.81F
MENOMINEE      CLEAR     63  57  82 SW7       29.82S
SAWYER-GWINN   CLOUDY    59  58  94 S9        29.81R
$$
MIZ001>003-009>011-084-260900-
WESTERN UPPER MICHIGAN

CITY           SKY/WX    TMP DP  RH WIND       PRES   REMARKS
IRON MOUNTAIN  MOCLDY    60  58  92 S5        29.81S
HOUGHTON       CLOUDY    52  50  93 W15       29.77R FOG
COPPER HARBOR    N/A     43  42  97 CALM      29.74S
IRONWOOD       CLOUDY    52  52 100 N6        29.78R VSB 1/2
$$

ABBREVIATIONS USED IN REMARKS
   TC - TEMPERATURE IN CELSIUS
  WCI - WIND CHILL INDEX
   HX - HEAT INDEX
  VSB - VISIBILITY




USA.gov is the U.S. government's official web portal to all federal, state and local government web resources and services.